Location: Jabiru
(12.6667°S, 132.8333°E)
Time: 05:03:20
(UTC+09:30)

ISS - Visible Passes

Search period start: 18 February 2019 00:00
Search period end: 28 February 2019 00:00
Orbit: 403 x 411 km, 51.6° (Epoch: 18 February)

Date Brightness Start Highest point End Pass type
(mag) Time Alt. Az. Time Alt. Az. Time Alt. Az.
18 Feb -1.1 05:00:38 10° S 05:03:07 20° SE 05:05:35 10° E visible
18 Feb -0.4 19:54:16 10° WSW 19:55:40 12° SW 19:57:04 10° SSW visible
19 Feb -3.2 05:46:23 20° WSW 05:48:06 34° NW 05:51:06 10° NNE visible
20 Feb -1.0 04:59:40 12° NE 04:59:40 12° NE 04:59:59 10° NE visible
